Regional Weather Roundup
Issued by NWS

Home | Current Version | Previous Version | Text Only | Print | Product List | Glossary On
Versions: 1 2 3 4 5 6 7 8 9 10 11 12 13 14 15 16 17 18 19 20 21 22 23 24 25 26 27 28 29 30 31 32 33 34 35 36 37 38 39 40 41 42 43 44 45 46 47 48 49 50
000
ASUS44 KFWD 232215
RWRTX
NORTH TEXAS HOURLY WEATHER ROUNDUP
NATIONAL WEATHER SERVICE FORT WORTH TX
500 PM CDT WED JUL 23 2014

NOTE: "FAIR" INDICATES FEW OR NO CLOUDS BELOW 12,000 FEET WITH NO
SIGNIFICANT WEATHER AND/OR OBSTRUCTIONS TO VISIBILITY.

TXZ118-119-232300-
DALLAS/FORT WORTH METROPLEX

CITY           SKY/WX    TMP DP  RH WIND       PRES   REMARKS
DFW AIRPORT    PTSUNNY   96  68  39 NE3       30.01F HX 101
DALLAS LOVE    PTSUNNY   94  68  42 MISG      30.01F HX  98
FTW MEACHAM    MOSUNNY   95  69  42 VRB5      30.01F HX 100
DAL-EXECUTIVE  SUNNY     95  65  37 CALM      30.02F HX  97
FTW-ALLIANCE   PTSUNNY   92  70  48 VRB3      30.02F HX  97
FTW-NAS-JRB    MOSUNNY   97  64  33 VRB3      30.05F HX  99
FTW-SPINKS     SUNNY     97  61  30 CALM      30.03F HX  97
ARLINGTON      SUNNY     94  64  37 E5        30.01F HX  95
GRAND PRAIRIE  SUNNY     93  63  36 NE6       30.03F HX  94
MESQUITE       MOSUNNY   93  66  40 NW6       30.02F HX  96
LANCASTER      SUNNY     94  64  36 NE5       30.02S HX  95
$$

TXZ091>094-102>105-117-120-121-131>134-232300-
NORTH CENTRAL TEXAS

CITY           SKY/WX    TMP DP  RH WIND       PRES   REMARKS
SHRMAN/DENISON PTSUNNY   92  68  45 NE3       30.03F HX  97
GAINESVILLE    MOSUNNY   93  70  47 N5        30.05S HX  98
BOWIE          MOSUNNY   93  68  44 CALM      30.05F HX  97
BRIDGEPORT     SUNNY     93  65  39 CALM      30.06F HX  94
DECATUR        SUNNY     92  68  44 NE6       30.05F HX  96
DENTON         MOSUNNY   92  70  48 VRB3      30.03F HX  97
MCKINNEY       PTSUNNY   93  71  48 E3        30.03R HX 100
GREENVILLE     MOSUNNY   93  68  43 CALM      30.02S HX  97
ROCKWALL       PTSUNNY   91  72  53 CALM      30.02R HX  98
TERRELL        SUNNY     95  66  38 NE7       30.02S HX  98
WAXAHACHIE     SUNNY     94  58  30 CALM      30.02F HX  92
CLEBURNE       SUNNY     95  61  31 NE9       30.04F HX  95
GRANBURY       SUNNY     96  62  31 E3        30.03F HX  97
$$

TXZ083>090-098>101-113>116-127>130-139>142-154-155-232300-
WESTERN NORTH TEXAS

CITY           SKY/WX    TMP DP  RH WIND       PRES   REMARKS
WICHITA FALLS  MOSUNNY   95  71  45 CALM      30.03F HX 102
WF-KICKAPOO    MOSUNNY   95  67  39 SE6       30.05F HX  99
VERNON         SUNNY     99  62  30 CALM      30.07F HX 100
ABILENE        SUNNY     97  63  32 E9        30.09F HX  98
ABILENE-DYESS  SUNNY     98  61  29 NE12G18   30.08F HX  98
BRECKENRIDGE   SUNNY     99  62  28 E12       30.04F HX 100
MINERAL WELLS  SUNNY     95  66  38 VRB6      30.03F HX  98
STEPHENVILLE   MOSUNNY   93  62  35 NE5G16    30.08F HX  94
COMANCHE       SUNNY     95  61  32 E10       30.07S HX  95
BROWNWOOD      LGT RAIN  93  66  40 E10       30.05F HX  96
COLEMAN        SUNNY     95  60  31 NE7       30.08F HX  95
BRADY          MOSUNNY   93  64  38 E8        30.08F HX  95
$$

TXZ143>147-156>162-174-175-232300-
CENTRAL TEXAS

CITY           SKY/WX    TMP DP  RH WIND       PRES   REMARKS
WACO           SUNNY     94  66  39 CALM      29.99F HX  97
WACO-TSTC      SUNNY     93  63  36 E5        30.05  HX  94
WACO-MCGREGOR  SUNNY     97  64  34 NE6       30.01F HX  99
HILLSBORO      SUNNY     95  59  30 E5        30.01F HX  94
CORSICANA      SUNNY     92  68  45 VRB6      30.02F HX  96
MEXIA          SUNNY     90  70  51 SE5       29.99F HX  95
HEARNE         SUNNY     97  72  45 E5        29.98F HX 106
CAMERON        SUNNY     93  69  44 CALM      29.98F HX  98
TEMPLE         SUNNY     93  66  40 NW5       30.01F HX  96
KILLEEN        NOT AVBL
KILLEEN-SKYLRK SUNNY     93  64  38 E9        30.01F HX  95
FORT HOOD      SUNNY     97  64  33 CALM      30.01F HX  99
GATESVILLE     SUNNY     93  63  36 NE8       30.04F HX  94
HAMILTON       SUNNY     94  62  35 E7        30.06F HX  94
LAMPASAS       SUNNY     95  68  40 NE5       30.03F HX  99
$$

TXZ095>097-106>112-122>126-135>138-148>153-164>167-232300-
EAST TEXAS

CITY           SKY/WX    TMP DP  RH WIND       PRES   REMARKS
PARIS          PTSUNNY   88  72  58 CALM      30.00F HX  94
SULPHUR SPRNGS MOSUNNY   91  71  51 NW5       30.03F HX  98
CLARKSVILLE    CLOUDY    88  75  67 N5        30.04R HX  97
MOUNT PLEASANT PTSUNNY   89  71  56 CALM      30.01F HX  95
GILMER         MOSUNNY   91  72  52 N5        30.02R HX  98
MINEOLA        PTSUNNY   93  70  46 W5        30.01R HX  99
TYLER          MOSUNNY   92  69  47 NW9       30.01S HX  97
LONGVIEW       MOSUNNY   91  69  48 SW7       29.99R HX  96
MARSHALL       PTSUNNY   94  73  51 SW3       30.01R HX 102
ATHENS         SUNNY     90  68  48 CALM      30.00S HX  93
JACKSONVILLE   SUNNY     90  69  48 CALM      30.03S HX  94
HENDERSON      MOSUNNY   90  67  47 CALM      30.01R HX  93
NACOGDOCHES    MOSUNNY   90  72  55 W6        29.98F HX  96
LUFKIN         MOSUNNY   94  70  45 SE6       29.97F HX 100
$$

SUPPLEMENTAL OBSERVATIONS (CENTRAL)

CITY           SKY/WX    TMP DP  RH WIND       PRES   REMARKS
LAKE TEXOMA      N/A     90  70  51 W3          N/A  HX  95
CADDO GRASSLND   N/A     90  75  62 W3          N/A  HX 100
PAT MAYSE LAKE   N/A     88  75  66 W3          N/A  HX  97
GREENVILLE       N/A     93  72  49 NW3         N/A  HX 100
CEDAR HILL       N/A     97  64  34 W2          N/A  HX  99
LAKE LIMESTONE   N/A     93  72  49 NE1         N/A  HX 100
MCGREGOR         N/A     95  64  36 SE3G13      N/A  HX  97
TEMPLE           N/A     93  64  38 E5          N/A  HX  95
$$

SUPPLEMENTAL OBSERVATIONS (WEST)

CITY           SKY/WX    TMP DP  RH WIND       PRES   REMARKS
MILLERS CREEK    N/A     99  64  32 E7G17       N/A  HX 101
POSSUM KINGDOM   N/A     97  63  32 NE8         N/A  HX  98
LBJ GRASSLAND    N/A     97  72  44 SE3         N/A  HX 105
GRANBURY         N/A     99  63  30 E5G13       N/A  HX 100
COMANCHE         N/A     93  63  36 NE7G15      N/A  HX  94
HAMBY            N/A     97  61  30 NE10        N/A  HX  97
IVIE RESERVOIR   N/A     97  64  34 E7          N/A  HX  99
COLORADO BEND    N/A     97  61  30 NE3G12      N/A  HX  97
$$

SUPPLEMENTAL OBSERVATIONS (EAST)

CITY           SKY/WX    TMP DP  RH WIND       PRES   REMARKS
CLARKSVILLE      N/A     86  75  70 NE3         N/A  HX  95
TEXARKANA        N/A     84  73  70 NW2         N/A  HX  91
LINDEN           N/A     90  72  55 N2          N/A  HX  96
GILMER           N/A     91  68  46 N3          N/A  HX  95
HENDERSON        N/A     91  66  43 W3          N/A  HX  94
LUFKIN           N/A     93  73  52 MISG        N/A  HX 102
N SABINE NF      N/A     93  70  46 MISG        N/A  HX  99
S SABINE NF      N/A     91  70  49 NE3         N/A  HX  97
$$

SUPPLEMENTAL OBSERVATIONS ARE A COLLECTION OF AUTOMATED INSTRUMENTS
THAT ARE MAINTAINED BY A VARIETY OF FEDERAL AND STATE AGENCIES.
CERTAIN ELEMENTS...SUCH AS HUMIDITY VALUES AND SUSTAINED WIND
SPEEDS...MAY BE APPROXIMATED.



USA.gov is the U.S. government's official web portal to all federal, state and local government web resources and services.